GW0392 Weather Reports


Display with metric or nautical units.
time (UTC)temp
F
wind
direction
speed
MPH
gust
MPH
rain 1hr
in
rain 24hr
in
rain mn
in
humidity
%
barometer
mb
20260503192420 68 224 1.0 2.0 0.00 0.00 0.00 38 1019.4
20260503191916 67 213 2.0 2.0 0.00 0.00 0.00 37 1019.4
20260503191414 67 224 1.0 2.0 0.00 0.00 0.00 38 1019.4
20260503190910 67 230 0.0 3.0 0.00 0.00 0.00 36 1019.7
20260503190408 68 205 0.0 1.0 0.00 0.00 0.00 38 1019.5
20260503185904 67 233 0.0 3.0 0.00 0.00 0.00 37 1019.7
20260503185400 67 141 3.0 6.0 0.00 0.00 0.00 37 1019.8
20260503184900 67 228 0.0 3.0 0.00 0.00 0.00 38 1020.0
20260503184356 67 196 2.0 5.0 0.00 0.00 0.00 38 1020.0
20260503183852 67 221 1.0 1.0 0.00 0.00 0.00 43 1020.0
20260503183349 66 228 0.0 5.0 0.00 0.00 0.00 37 1020.1
20260503182847 67 229 1.0 6.0 0.00 0.00 0.00 37 1020.0
20260503182346 67 218 1.0 2.0 0.00 0.00 0.00 40 1020.0
20260503181842 66 174 1.0 2.0 0.00 0.00 0.00 42 1020.0
20260503181339 66 172 2.0 5.0 0.00 0.00 0.00 40 1020.3
20260503180836 65 225 2.0 3.0 0.00 0.00 0.00 43 1020.2
20260503180334 64 253 2.0 2.0 0.00 0.00 0.00 42 1020.1
20260503175830 66 231 0.0 1.0 0.00 0.00 0.00 41 1020.2
20260503175328 65 223 0.0 2.0 0.00 0.00 0.00 46 1020.4
20260503174823 64 188 3.0 7.0 0.00 0.00 0.00 46 1020.5
20260503174322 65 110 4.0 8.0 0.00 0.00 0.00 45 1020.4
20260503173817 64 227 0.0 2.0 0.00 0.00 0.00 46 1020.5
20260503173313 64 212 0.0 3.0 0.00 0.00 0.00 46 1021.0
20260503172810 65 176 3.0 3.0 0.00 0.00 0.00 46 1020.9
20260503172308 64 228 0.0 1.0 0.00 0.00 0.00 49 1020.9
20260503171804 63 230 0.0 2.0 0.00 0.00 0.00 49 1021.2
20260503171301 63 250 1.0 2.0 0.00 0.00 0.00 48 1021.3
20260503170758 63 240 0.0 2.0 0.00 0.00 0.00 48 1021.3
20260503170254 62 229 1.0 3.0 0.00 0.00 0.00 50 1021.5
20260503160217 60 216 3.0 3.0 0.00 0.00 0.00 51 1022.2
20260503150647 58 234 1.0 3.0 0.00 0.00 0.00 55 1022.3
20260503150143 58 226 0.0 1.0 0.00 0.00 0.00 56 1022.2
20260503140107 54 235 0.0 1.0 0.00 0.00 0.00 65 1022.4
20260503131036 50 229 0.0 1.0 0.00 0.00 0.00 88 1022.1
20260503130534 49 222 0.0 0.0 0.00 0.00 0.00 87 1022.0
20260503110424 43 223 0.0 0.0 0.00 0.00 0.00 97 1021.2
20260503090315 43 227 0.0 0.0 0.00 0.00 0.00 96 1019.9
20260503081242 44 223 0.0 0.0 0.00 0.00 0.00 95 1019.7
20260503080738 44 223 0.0 0.0 0.00 0.00 0.00 94 1019.9
20260503080236 44 227 0.0 0.0 0.00 0.00 0.00 94 1019.7
20260503072712 44 225 0.0 0.0 0.00 0.00 0.00 93 1019.5
20260503072209 45 226 0.0 0.0 0.00 0.00 0.00 93 1019.6
20260503071706 45 226 0.0 0.0 0.00 0.00 0.00 93 1019.4
20260503071203 45 226 0.0 0.0 0.00 0.00 0.00 92 1019.4
20260503070659 45 225 0.0 0.0 0.00 0.00 0.00 92 1019.6
20260503070158 45 230 0.0 0.0 0.00 0.00 0.00 92 1019.4
20260503060122 48 228 0.0 0.0 0.00 0.00 0.00 84 1019.1
20260503055113 48 231 0.0 0.0 0.00 0.00 0.00 84 1019.1
20260503054609 49 228 0.0 0.0 0.00 0.00 0.00 83 1019.2
20260503054106 49 228 0.0 0.0 0.00 0.00 0.00 83 1019.0
20260503053604 49 231 0.0 0.0 0.00 0.00 0.00 83 1019.1
20260503053102 49 231 0.0 1.0 0.00 0.00 0.00 83 1019.0
20260503052558 49 231 0.0 0.0 0.00 0.00 0.00 82 1018.9
20260503052055 49 228 1.0 1.0 0.00 0.00 0.00 82 1018.8
20260503051550 49 229 0.0 0.0 0.00 0.00 0.00 81 1018.7
20260503051048 49 233 0.0 1.0 0.00 0.00 0.00 81 1018.9
20260503050544 49 236 0.0 1.0 0.00 0.00 0.00 80 1019.0
20260503050041 49 233 0.0 0.0 0.00 0.00 0.00 81 1018.7
20260503045538 49 235 0.0 0.0 0.00 0.00 0.00 81 1018.7
20260503045036 49 226 0.0 0.0 0.00 0.00 0.00 79 1018.8
20260503044532 49 229 0.0 0.0 0.00 0.00 0.00 79 1018.9
20260503044030 49 229 0.0 0.0 0.00 0.00 0.00 78 1018.7
20260503043526 49 229 0.0 0.0 0.00 0.00 0.00 78 1018.4
20260503043023 50 226 0.0 0.0 0.00 0.00 0.00 78 1018.3
20260503042520 50 227 0.0 1.0 0.00 0.00 0.00 78 1018.4
20260503042015 50 232 0.0 0.0 0.00 0.00 0.00 76 1018.3
20260503041513 50 232 0.0 0.0 0.00 0.00 0.00 75 1018.4
20260503041011 51 232 0.0 0.0 0.00 0.00 0.00 75 1018.4
20260503040508 51 232 0.0 0.0 0.00 0.00 0.00 74 1018.4
20260503040005 51 232 0.0 0.0 0.00 0.00 0.00 74 1018.4
20260503035501 51 232 0.0 0.0 0.00 0.00 0.00 73 1018.4
20260503034959 51 232 0.0 0.0 0.00 0.00 0.00 73 1018.2
20260503034456 52 232 0.0 0.0 0.00 0.00 0.00 72 1018.4
20260503033953 52 227 0.0 0.0 0.00 0.00 0.00 71 1018.3
20260503033450 52 227 0.0 0.0 0.00 0.00 0.00 70 1018.3
20260503032949 53 227 0.0 0.0 0.00 0.00 0.00 69 1018.5
20260503032446 53 227 0.0 0.0 0.00 0.00 0.00 68 1018.2
20260503031944 53 227 0.0 0.0 0.00 0.00 0.00 68 1018.4
20260503031442 53 227 0.0 0.0 0.00 0.00 0.00 67 1018.2
20260503030938 54 232 0.0 0.0 0.00 0.00 0.00 67 1018.3
20260503030434 54 227 0.0 0.0 0.00 0.00 0.00 66 1018.3
20260503025931 54 231 0.0 1.0 0.00 0.00 0.00 66 1017.9
20260503025428 55 231 0.0 1.0 0.00 0.00 0.00 63 1018.1
20260503024926 55 222 0.0 1.0 0.00 0.00 0.00 63 1017.9
20260503024422 55 233 1.0 1.0 0.00 0.00 0.00 62 1018.0
20260503023920 55 230 1.0 2.0 0.00 0.00 0.00 61 1018.0
20260503023417 56 231 1.0 2.0 0.00 0.00 0.00 60 1017.8
20260503022913 56 231 1.0 1.0 0.00 0.00 0.00 59 1017.9
20260503022408 56 233 1.0 1.0 0.00 0.00 0.00 59 1017.8
20260503021904 56 265 2.0 2.0 0.00 0.00 0.00 58 1017.7
20260503021400 57 236 2.0 2.0 0.00 0.00 0.00 57 1017.3
20260503020858 57 239 1.0 2.0 0.00 0.00 0.00 57 1017.4
20260503020356 56 245 1.0 2.0 0.00 0.00 0.00 58 1017.3
20260503015852 56 242 1.0 1.0 0.00 0.00 0.00 59 1017.3
20260503015349 56 237 0.0 1.0 0.00 0.00 0.00 58 1017.2
20260503014844 57 233 1.0 1.0 0.00 0.00 0.00 61 1017.0
20260503014342 57 233 0.0 1.0 0.00 0.00 0.00 58 1016.8
20260503013840 58 233 0.0 0.0 0.00 0.00 0.00 57 1016.8
20260503013337 58 233 1.0 1.0 0.00 0.00 0.00 53 1016.9
20260503012834 59 233 0.0 1.0 0.00 0.00 0.00 51 1016.8
20260503012332 59 231 1.0 1.0 0.00 0.00 0.00 50 1016.7
20260503011828 59 233 1.0 1.0 0.00 0.00 0.00 51 1016.6
20260503011325 59 228 1.0 1.0 0.00 0.00 0.00 49 1016.6
20260503010821 59 236 1.0 2.0 0.00 0.00 0.00 48 1016.6
20260503010319 59 228 1.0 2.0 0.00 0.00 0.00 48 1016.6
20260503005815 60 231 1.0 2.0 0.00 0.00 0.00 47 1016.4
20260503005313 60 241 2.0 2.0 0.00 0.00 0.00 46 1016.5
20260503004809 60 227 1.0 2.0 0.00 0.00 0.00 46 1016.4
20260503004307 61 233 0.0 2.0 0.00 0.00 0.00 45 1016.3
20260503003804 61 253 2.0 3.0 0.00 0.00 0.00 44 1016.1
20260503003301 61 233 1.0 5.0 0.00 0.00 0.00 42 1016.2
20260503002758 61 233 1.0 1.0 0.00 0.00 0.00 45 1015.9
20260503002255 61 229 1.0 1.0 0.00 0.00 0.00 42 1015.7
20260503001751 61 232 1.0 1.0 0.00 0.00 0.00 43 1015.6
20260503001247 61 231 1.0 1.0 0.00 0.00 0.00 44 1015.5
20260503000745 61 228 0.0 1.0 0.00 0.00 0.00 42 1015.6
20260503000242 61 230 0.0 1.0 0.00 0.00 0.00 44 1015.2
20260502235739 61 229 0.0 1.0 0.00 0.00 0.00 43 1015.2
20260502235237 61 231 0.0 1.0 0.00 0.00 0.00 44 1015.1
20260502234733 61 228 1.0 1.0 0.00 0.00 0.00 42 1015.0
20260502234231 61 232 1.0 1.0 0.00 0.00 0.00 42 1015.1
20260502233726 62 231 1.0 1.0 0.00 0.00 0.00 41 1014.9
20260502233224 62 233 1.0 1.0 0.00 0.00 0.00 40 1014.9
20260502232719 63 231 1.0 2.0 0.00 0.00 0.00 40 1014.5
20260502232216 63 229 1.0 1.0 0.00 0.00 0.00 39 1014.5
20260502231713 63 236 1.0 2.0 0.00 0.00 0.00 39 1014.8
20260502231211 63 231 0.0 2.0 0.00 0.00 0.00 37 1014.4
20260502230709 63 227 0.0 1.0 0.00 0.00 0.00 42 1014.8
20260502230207 63 231 0.0 1.0 0.00 0.00 0.00 40 1014.6
20260502225702 63 229 1.0 1.0 0.00 0.00 0.00 38 1014.8
20260502225200 63 222 1.0 1.0 0.00 0.00 0.00 38 1014.7
20260502224656 63 230 1.0 1.0 0.00 0.00 0.00 40 1014.8
20260502224153 63 230 0.0 2.0 0.00 0.00 0.00 39 1014.7
20260502223651 64 232 1.0 1.0 0.00 0.00 0.00 37 1014.7
20260502223149 64 269 1.0 2.0 0.00 0.00 0.00 37 1014.6
20260502222646 64 229 1.0 2.0 0.00 0.00 0.00 38 1014.6
20260502222143 65 217 1.0 3.0 0.00 0.00 0.00 36 1014.4
20260502221638 65 247 1.0 2.0 0.00 0.00 0.00 37 1014.4
20260502221135 65 236 1.0 2.0 0.00 0.00 0.00 37 1014.6
20260502220632 65 234 1.0 3.0 0.00 0.00 0.00 36 1014.4
20260502220128 65 237 1.0 3.0 0.00 0.00 0.00 34 1014.5
20260502215625 65 233 1.0 2.0 0.00 0.00 0.00 34 1014.3
20260502215122 65 230 1.0 2.0 0.00 0.00 0.00 36 1014.3
20260502214619 65 229 0.0 2.0 0.00 0.00 0.00 34 1014.6
20260502214116 65 200 0.0 1.0 0.00 0.00 0.00 39 1014.3
20260502213614 65 231 0.0 1.0 0.00 0.00 0.00 36 1014.3
20260502213111 65 233 1.0 1.0 0.00 0.00 0.00 36 1014.3
20260502212610 65 229 0.0 2.0 0.00 0.00 0.00 36 1014.5
20260502212108 66 251 1.0 5.0 0.00 0.00 0.00 36 1014.2
20260502211602 66 306 2.0 3.0 0.00 0.00 0.00 35 1014.2
20260502211100 65 235 0.0 2.0 0.00 0.00 0.00 35 1014.2
20260502210557 65 232 0.0 1.0 0.00 0.00 0.00 35 1014.4
20260502210054 65 233 0.0 5.0 0.00 0.00 0.00 36 1014.4
20260502205550 66 256 1.0 2.0 0.00 0.00 0.00 35 1014.3
20260502205048 66 227 1.0 6.0 0.00 0.00 0.00 36 1014.5
20260502204544 65 236 0.0 1.0 0.00 0.00 0.00 37 1014.4
20260502204042 64 236 0.0 1.0 0.00 0.00 0.00 38 1014.6
20260502203539 64 214 0.0 2.0 0.00 0.00 0.00 39 1014.5
20260502203036 64 231 1.0 2.0 0.00 0.00 0.00 35 1014.5
20260502202532 65 229 1.0 2.0 0.00 0.00 0.00 36 1014.6
20260502202031 66 278 3.0 6.0 0.00 0.00 0.00 33 1014.6
20260502201526 66 251 1.0 2.0 0.00 0.00 0.00 36 1014.4
20260502201023 65 234 0.0 2.0 0.00 0.00 0.00 35 1014.5
20260502200519 65 262 3.0 5.0 0.00 0.00 0.00 34 1014.5
20260502200017 65 269 1.0 3.0 0.00 0.00 0.00 37 1014.4
20260502195514 64 231 0.0 3.0 0.00 0.00 0.00 36 1014.5
20260502195009 64 238 1.0 3.0 0.00 0.00 0.00 38 1014.6
20260502194507 65 242 2.0 6.0 0.00 0.00 0.00 35 1014.5
20260502194003 66 228 1.0 2.0 0.00 0.00 0.00 34 1014.9
20260502193500 65 246 1.0 2.0 0.00 0.00 0.00 32 1014.5
20260502192956 65 243 2.0 2.0 0.00 0.00 0.00 35 1014.7